Regional Weather Roundup
Issued by NWS Grand Forks, ND

Home | Current Version | Previous Version | Graphics & Text | Print | Product List | Glossary On
Versions: 1 2 3 4 5 6 7 8 9 10 11 12 13 14 15 16 17 18 19 20 21 22 23 24 25 26 27 28 29 30 31 32 33 34 35 36 37 38 39 40 41 42 43 44 45 46 47 48 49 50
000
ASUS43 KFGF 120710
RWRFGF
PRAIRIE TO PINES  WEATHER ROUNDUP
NATIONAL WEATHER SERVICE EASTERN NORTH DAKOTA/GRAND FORKS ND
100 AM CST FRI FEB 12 2016

 **SATELLITE DATA USED TO AUGMENT SKY COVER AT AUTOMATED STATIONS**
 *****  WEATHER ACROSS EASTERN NORTH DAKOTA  *****

CITY           SKY/WX    TMP DP  RH WIND       PRES   REMARKS
GRAND FORKS    CLEAR      7  -2  66 N13       30.34R WCI  -9
GRAND FRKS AFB CLEAR      6  -3  68 N12       30.35R WCI -10
DEVILS LAKE    CLOUDY    -1  -4  87 NW10      30.33R WCI -17
FARGO          CLOUDY    11   4  73 N8        30.32R WCI  -1
WAHPETON ARPT  CLOUDY    10   5  79 NW9       30.31R WCI  -2
$$

 ***** WEATHER ACROSS CENTRAL AND WESTERN NORTH DAKOTA  *****

CITY           SKY/WX    TMP DP  RH WIND       PRES   REMARKS
BISMARCK       CLOUDY    20  14  77 NW6       30.33R WCI  12
MINOT          LGT SNOW  14   5  67 N10       30.36R WCI   1
JAMESTOWN      FLURRIES  11   6  81 NW9       30.30R WCI  -2
MINOT AFB      NOT AVBL
GARRISON         N/A     15  12  88 N9        30.32R WCI   3
WILLISTON      CLOUDY    19  14  81 N10       30.36R WCI   7
DICKINSON      CLOUDY    20  17  88 N7        30.27R WCI  11
HETTINGER      CLOUDY    24  20  84 N8        30.27R FOG     WCI  15
$$

 *****  OTHER AIRPORT OBSERVATIONS IN OUR AREA  *****

CITY           SKY/WX    TMP DP  RH WIND       PRES   REMARKS
WALHALLA       FAIR       5  -4  66 N17       30.37R WCI -14
GRAFTON AIRPOR FAIR       5  -2  72 N14       30.37R WCI -12
VALLEY CITY AR CLOUDY    10   7  85 N10       30.32R WCI  -3
CANDO          NOT AVBL
CAVALIER APRT  FAIR       5  -4  66 N15G25    30.36R WCI -13
GWINNER        PTSUNNY   12   9  85 NW9       30.31R WCI   0
SHEYENNE NWR     N/A      9   4  80 N7        29.95S WCI  -2
ROLLA          FAIR       0  -2  92 NW16      30.32R WCI -21
 ***** THE ABOVE OBSERVATIONS ARE NON NWS ARE NOT QUALITY
       CONTROLLED AND MAY MIS-REPORT RAIN FOR SNOW...
$$

  *****  WEATHER ACROSS NORTHERN MINNESOTA  *****

CITY           SKY/WX    TMP DP  RH WIND       PRES   REMARKS
FLAG ISLAND    PTCLDY    -4  -9  77 NW16      30.22R WCI -25
WARROAD        CLEAR     -2  -8  78 NW12      30.25R WCI -20
ROSEAU         CLEAR     -4  -9  77 NW8       30.27R WCI -19
HALLOCK        CLEAR      1  -6  71 N15       30.33R WCI -18
THF RVR FALLS  CLEAR      1  -2  85 NW15      30.28R WCI -18
BAUDETTE       CLEAR     -1  -9  68 NW14      30.20R WCI -20
WASKISH        CLEAR      0  -4  85 W8        30.21R WCI -15
CROOKSTON      PTCLDY     5   0  78 N15       30.33R WCI -13
STEPHEN NDAWN    N/A      1  -6  71 NW10        N/A  WCI -14
GREENBUSH NDAW   N/A     -4  -9  77 NW10        N/A  WCI -21
$$
  *****  WEATHER ACROSS CENTRAL AND WEST MINNESOTA  *****

CITY           SKY/WX    TMP DP  RH WIND       PRES   REMARKS
FOSSTON        PTCLDY     1  -2  85 NW8       30.26R WCI -12
BEMIDJI        CLEAR      1  -4  78 NW10      30.20R WCI -14
PARK RAPIDS    MOCLDY     8   0  69 NW16      30.19S WCI -10
ELBOW LAKE     CLOUDY     6   3  87 W7        30.26S WCI  -5
WADENA         CLOUDY     7   1  78 W6        30.21S WCI  -3
DETROIT LAKES  CLOUDY    10   5  79 NW12      30.25R WCI  -4
MOORHEAD       CLOUDY     9   5  85 N12       30.32R WCI  -6
FERGUS FALLS   CLOUDY     7   3  85 NW9       30.31R WCI  -7
MORRIS MN      CLEAR      9   3  78 NW12      30.26R WCI  -6
STAPLES        CLOUDY     7   1  78 NW8       30.21R WCI  -6
$$
  *****  WEATHER ELSEWHERE ACROSS MINNESOTA  *****

CITY           SKY/WX    TMP DP  RH WIND       PRES   REMARKS
DULUTH         CLOUDY     8   0  69 NW14      30.08F WCI  -8
INTRNTL FALLS  CLEAR      0  -8  69 NW10      30.15R WCI -16
ELY            CLEAR      3  -2  78 NW7G17    30.06S WCI  -9
CLOQUET        CLOUDY     9   0  66 W9G17     30.12R WCI  -5
WHEATON        MOCLDY     9   7  92 W7        30.32R WCI  -3
BRAINERD       CLOUDY    10   2  69 NW12      30.19S WCI  -5
HIBBING        PTCLDY     3  -3  76 NW21G28   30.11S WCI -18
ALEXANDRIA     CLEAR      8   2  76 NW7       30.21S WCI  -3
SAINT CLOUD    CLOUDY    12   7  80 NW10      30.20S WCI  -1
MINNEAPOLIS    CLOUDY    14   8  77 W6        30.20F WCI   5
$$

  *****  WEATHER ACROSS SOUTH DAKOTA  *****

CITY           SKY/WX    TMP DP  RH WIND       PRES   REMARKS
SIOUX FALLS    CLOUDY    15  11  83 W6        30.24S WCI   6
BROOKINGS      CLOUDY    17  13  84 N10       30.22R WCI   5
WATERTOWN      MOCLDY    10   6  84 N8        30.23R WCI  -2
HURON          CLOUDY    18  14  84 N13       30.30R WCI   5
SISSETON         N/A      7   4  87 N10       30.29R WCI  -8
ABERDEEN       CLOUDY    12   8  84 NW6       30.32R WCI   3
MITCHELL       CLOUDY    22  19  89 N14       30.29R WCI   9
PIERRE         CLOUDY    25  22  88 N15       30.28R WCI  13
MOBRIDGE       CLOUDY    21  16  81 N6        30.28R WCI  13
RAPID CITY     CLOUDY    31  27  85 NE7       30.24S WCI  24
$$

  *****  SOME WEATHER IN NEARBY STATES *****

CITY           SKY/WX    TMP DP  RH WIND       PRES   REMARKS
GLASGOW MT     CLOUDY    28  23  81 E7        30.32R WCI  21
GREAT FALLS MT CLOUDY    32  27  81 E5        30.25S
CHEYENNE WY    CLOUDY    34  24  67 CALM      30.27R
SCOTTSBLUFF NE CLOUDY    31  26  82 N6        30.24S
OMAHA NE       CLOUDY    24  20  84 N8        30.24S WCI  15
DES MOINES IA  CLOUDY    19  15  84 S3        30.22F
DAVENPORT IA   CLEAR     17  11  77 CALM      30.23F
CHICAGO IL     CLOUDY    19   7  59 W7        30.20F WCI  10
EAU CLAIRE WI  CLOUDY    14   5  67 W9        30.17F WCI   2
LA CROSSE WI   LGT SNOW  14   6  70 W7        30.21F WCI   4
$$

  *****  SOME NATIONAL WEATHER *****

CITY           SKY/WX    TMP DP  RH WIND       PRES   REMARKS
LA GUARDIA NY  CLEAR     19   1  45 NW20G30   30.23R WCI   3
RALEIGH NC     MOCLDY    27   7  42 NE6       30.30F WCI  20
ATLANTA GA     MOCLDY    40  24  53 NE5       30.17F
NEW ORLEANS LA PTCLDY    59  55  87 SW10      30.20F
OKLAHOMA CITY  PTCLDY    40  32  73 CALM      30.17S
ALBUQUERQUE NM CLOUDY    49  17  28 NW12      30.34S
SALT LAKE CITY CLOUDY    30  27  88 W6        30.44R FOG     WCI  24
LOS ANGELES CA PTCLDY    63  43  48 CALM      30.11S
BOISE ID       PTCLDY    35  29  78 S3        30.33S
SEATTLE WA     RAIN      50  48  93 SE15      30.08F FOG
$$

*** WEATHER ACROSS MANITOBA...SASKATCHEWAN AND ONTARIO ***
                ***ONTARIO***

CITY           SKY/WX    TMP DP  RH WIND       PRES   REMARKS
GERALDTON      LGT SNOW  -6 -11  77 N12       29.92R DRFTSNOWWCI -24
THUNDER BAY    CLEAR      1  -2  85 W8        30.02S WCI -12
SIOUX LOOKOUT  PTCLDY    -6 -13  71 N7        30.06R WCI -20
TORONTO        PTCLDY    12   1  62 SW14G20   30.11F WCI  -3
BIG TROUT LK   CLEAR    -27 -35  68 NW9       30.12R WCI -49
PICKLE LAKE    NOT AVBL
DRYDEN         PTCLDY    -8 -11  84 W8        30.08R WCI -23
KENORA         CLEAR     -8 -13  77 NW10G18   30.16R WCI -26
$$
                *** MANITOBA***

CITY           SKY/WX    TMP DP  RH WIND       PRES   REMARKS
BRANDON        CLEAR     -4  -9  77 N12       30.39R WCI -22
DAUPHIN        CLEAR     -4  -9  77 N8        30.48R WCI -19
ISLAND LAKE    CLEAR    -22 -27  76 NW6       30.32R WCI -38
PILOT MOUND      N/A     -8 -13  77 NW6         N/A  WCI -21
THE PAS        CLEAR    -17 -24  70 N9        30.58R WCI -36
THOMPSON       CLEAR    -24 -31  69 NW10G18   30.47R WCI -46
WINNIPEG       CLEAR     -8 -15  71 NW10      30.37R WCI -26
LYNN LAKE      CLEAR    -26 -33  68 NW12G18   30.54R WCI -49
CHURCHILL      CRYSTALS -22 -29  69 NW26G33   30.32R VSB 5/8 WCI -54
$$
                ***SASKATCHEWAN***

CITY           SKY/WX    TMP DP  RH WIND       PRES   REMARKS
ESTEVAN        MOCLDY     9   1  72 N12G17    30.39R WCI  -6
KINDERSLEY     CLOUDY    10   7  85 E15       30.40R WCI  -6
LLOYDMINSTER   CLEAR      1  -2  85 E7        30.44S WCI -11
PRINCE ALBERT  CLEAR    -13 -17  84 W5        30.56R WCI -25
REGINA         CLEAR      3  -2  78 N5        30.44R WCI  -6
YORKTON        CLEAR    -11 -15  84 NW8       30.44R WCI -28
N. BATTLEFORD  CLEAR      1  -4  78 E8        30.51R WCI -12
LA RONGE       CLEAR    -18 -22  83 NE2       30.62R
SASKATOON      CLEAR      0  -4  85 NE8       30.52R WCI -15
SWIFT CURRENT  CLOUDY    12  10  92 E13       30.33S WCI  -3
$$
NOTE: THESE ARE AUTOMATED STATIONS WITH LIMITED QUALITY CONTROL
      "FAIR" INDICATES FEW OR NO CLOUDS BELOW 12,000 FEET WITH NO
      SIGNIFICANT WEATHER AND/OR OBSTRUCTIONS TO VISIBILITY.
      SKY/WX - SKY CONDITION AND SIGNIFICANT WEATHER.
      TMP - AIR TEMPERATURE.    DP   - DEWPOINT TEMPERATURE.
      RH  - RELATIVE HUMIDITY.  PRES - PRESSURE.
      HX  - HEAT INDEX.         WCI  - WIND CHILL INDEX.
$



USA.gov is the U.S. government's official web portal to all federal, state and local government web resources and services.